Weather in Tsvelodubovo

Russia / Saint-Petersburg and Leningrad Oblast     60°23′15″N   29°33′34″E
temp.,
°C
wind,
m/s
gust,
m/s
humid.,
%
clouds,
%
prec.,
mm/h
press.,
hPa
HPBL,
m
12 april, mon
mon1200:00+3ese2667100 0.0 1028107
03:00+4se3982100 0.1 1028290
06:00+5se4138999 0.3 1025413
09:00+8sse51484100 1.0 1024434
12:00+13s51464100 0.0 1023815
15:00+15s61256100 0.0 10221214
18:00+14s4115788 0.0 1021752
21:00+11sse41368100 0.0 1021381
13 april, tue
tue1300:00+9sse4117812 0.0 1020251
03:00+7sse4128064 0.0 1018275
06:00+5s3108596 0.0 1018250
09:00+8ssw3675100 0.0 1018348
12:00+7sw388693 0.0 1020452
15:00+6wsw4774100 0.0 1021501
18:00+5wsw3970100 0.0 1021511
21:00+4wsw31064100 0.0 1022396
14 april, wed
wed1400:00+3wsw2967100 0.0 1022312
03:00+2wsw2776100 0.0 1021219
06:00+2wsw2582100 0.0 1021167
09:00+4w2570100 0.0 1021433
12:00+7w3460100 0.0 1021905
15:00+8wnw235092 0.0 10211042
18:00+8wnw3349100 0.0 10211244
21:00+3nw2677100 0.0 1023142
15 april, thu
thu1500:00+2n2882100 0.0 1025235
03:000nne248598 0.0 102688
06:00−1nne24888 0.0 102673
09:00+4nne356955 0.0 1027491
12:00+7nne34535 0.0 10271174
15:00+9nne34435 0.0 10261384
18:00+8nne34425 0.0 10261433
21:00+3nne22680 0.0 102719
16 april, fri
fri1600:00+2n23715 0.0 102851
03:00+1nne24740 0.0 102983
06:000nne26780 0.0 1030127
09:00+5nne36655 0.0 1031459
12:00+8ne57525 0.0 10321183
15:00+9ne57455 0.0 10341407
18:00+8ne57505 0.0 10341377
21:00+4ne310650 0.0 1036345